Home > Time Zones > World Clock > Weather > Belgium > Spa > Past weeks

Flag for Belgium Weather past 2 weeks in Spa, Belgium

Now
54 °F

Clear.


Feels Like: 54 °F
Forecast: 49 / 67 °F
Wind: 2 mph from South

Location: Spa / La Sauveniere

Current Time: Sep 30, 2014 at 10:02:33 PM

Latest Report: Sep 30, 2014 at 9:00 PM


Visibility: N/A

Pressure: 30.33 "Hg

Humidity: 95%

Dew point: 53 °F

Location of SpaLocation

Historic Weather in Spa — Graph

°F

Spa temperature yesterday

Maximum temperature yesterday: 65 °F (at 1:00 PM)
Minimum temperature yesterday: 56 °F (at 8:00 AM)
Average temperature yesterday: 59 °F

Past Weeks' High & Low Weather Summary

 TemperatureHumidityPressure
High73 °F (Sep 17, 5:00 PM)100% (Sep 21, 10:00 AM)30.37 "Hg (Sep 21, 10:00 AM)
Low41 °F (Sep 23, 8:00 AM)51% (Sep 17, 4:00 PM)29.80 "Hg (Sep 18, 5:00 PM)
Average57 °F84%30.10 "Hg
* Reported Sep 15 8:00 PM — Sep 30 8:00 PM, Spa, Weather by CustomWeather, © 2014

Note: Actual official high and low records may vary slightly from our data, if they occured in-between our weather recording intervals... More about our weather records

Advertising

Spa weather history for previous 24 hours

 ConditionsComfort  
Time TempWeatherWind HumidityBarometerVisibility
8:00 PM
Sep 30
56 °FClear.1 mph93%30.32 "Hg7 mi
7:00 PM61 °FSunny.1 mph80%30.30 "Hg10 mi
6:00 PM63 °FSunny.1 mph74%30.29 "Hg10 mi
5:00 PM64 °FSunny.3 mph69%30.29 "Hg11 mi
4:00 PM64 °FScattered clouds.2 mph71%30.29 "Hg11 mi
3:00 PM64 °FPassing clouds.3 mph72%30.30 "Hg10 mi
2:00 PM62 °FPassing clouds.3 mph74%30.30 "Hg12 mi
1:00 PM61 °FScattered clouds.2 mph83%30.30 "Hg6 mi
12:00 PM61 °FOvercast.3 mph79%30.30 "Hg9 mi
11:00 AM58 °FFog.2 mph93%30.30 "Hg3 mi
10:00 AM57 °FFog.2 mph96%30.29 "Hg3 mi
9:00 AM57 °FLow clouds.2 mph99%30.28 "Hg2 mi
8:00 AM57 °FFog.2 mph98%30.27 "Hg2 mi
7:00 AM57 °FLow clouds.2 mph98%30.26 "HgN/A
6:00 AM57 °FPassing clouds.3 mph97%30.26 "HgN/A
5:00 AM57 °FLight rain. Overcast.3 mph96%30.25 "Hg4 mi
4:00 AM56 °FOvercast.2 mph98%30.25 "HgN/A
3:00 AM57 °FClear.3 mph95%30.25 "Hg6 mi
2:00 AM56 °FPassing clouds.3 mph96%30.25 "Hg6 mi
1:00 AM57 °FLow clouds.3 mph97%30.26 "Hg7 mi
12:00 AM56 °FOvercast.3 mph98%30.25 "Hg10 mi
11:00 PM
Sep 29
56 °FOvercast.2 mph98%30.25 "Hg11 mi
10:00 PM57 °FOvercast.3 mph97%30.25 "Hg6 mi
Weather by CustomWeather, © 2014

See weather overviewHow to use our weather pages